FW1521 Weather Reports


Display with metric or nautical units.
time (UTC)temp
F
wind
direction
speed
MPH
gust
MPH
rain 1hr
in
rain 24hr
in
rain mn
in
humidity
%
barometer
mb
20260510160020 86 254 1.0 5.0 0.00 0.00 0.00 67 1018.7
20260510154550 85 234 1.0 5.0 0.00 0.00 0.00 66 1018.6
20260510153034 85 240 4.0 8.0 0.00 0.00 0.00 66 1018.8
20260510151552 86 251 4.0 8.0 0.00 0.00 0.00 65 1018.6
20260510150017 85 208 3.0 9.0 0.00 0.00 0.00 67 1018.7
20260510144536 85 285 2.0 9.0 0.00 0.00 0.00 68 1018.6
20260510143004 84 235 2.0 7.0 0.00 0.00 0.00 71 1018.6
20260510141532 83 251 3.0 9.0 0.00 0.00 0.00 71 1018.6
20260510140055 82 153 3.0 9.0 0.00 0.00 0.00 72 1018.4
20260510134524 81 226 2.0 8.0 0.00 0.00 0.00 74 1018.4
20260510133050 80 210 4.0 8.0 0.00 0.00 0.00 75 1018.4
20260510131509 78 214 1.0 8.0 0.00 0.00 0.00 76 1018.1
20260510130044 76 152 2.0 7.0 0.00 0.00 0.00 78 1018.4
20260510124605 74 174 1.0 4.0 0.00 0.00 0.00 80 1018.3
20260510123020 72 136 0.0 1.0 0.00 0.00 0.00 80 1018.1
20260510121542 71 136 0.0 0.0 0.00 0.00 0.00 81 1018.0
20260510120024 70 136 0.0 0.0 0.00 0.00 0.00 81 1017.7
20260510114540 70 136 0.0 0.0 0.00 0.00 0.00 81 1017.5
20260510113059 70 136 0.0 0.0 0.00 0.00 0.00 81 1017.1
20260510113001 70 136 0.0 0.0 0.00 0.00 0.00 81 1017.2
20260510111528 70 136 0.0 0.0 0.00 0.00 0.00 81 1017.0
20260510110047 69 136 0.0 0.0 0.00 0.00 0.00 81 1016.8
20260510104519 70 136 0.0 0.0 0.00 0.00 0.00 81 1016.6
20260510103047 70 136 0.0 0.0 0.00 0.00 0.00 80 1016.6
20260510101529 70 136 0.0 0.0 0.00 0.00 0.00 80 1016.4
20260510100043 71 136 0.0 2.0 0.00 0.00 0.00 80 1016.2
20260510094515 71 136 0.0 0.0 0.00 0.00 0.00 80 1016.1
20260510093039 71 136 0.0 1.0 0.00 0.00 0.00 80 1015.8
20260510091507 72 136 1.0 3.0 0.00 0.00 0.00 80 1015.7
20260510090045 72 139 0.0 2.0 0.00 0.00 0.00 80 1015.5
20260510084544 72 139 0.0 0.0 0.00 0.00 0.00 80 1015.3
20260510083017 72 139 0.0 2.0 0.00 0.00 0.00 80 1015.3
20260510081545 72 139 0.0 3.0 0.00 0.00 0.00 80 1015.1
20260510080018 72 140 0.0 3.0 0.00 0.00 0.00 80 1015.2
20260510074543 72 140 0.0 4.0 0.00 0.00 0.00 80 1015.1
20260510073013 72 138 0.0 5.0 0.00 0.00 0.00 80 1015.2
20260510071544 72 133 2.0 7.0 0.00 0.00 0.00 80 1015.2
20260510070010 72 134 1.0 5.0 0.00 0.00 0.00 79 1015.3
20260510064539 72 137 1.0 5.0 0.00 0.00 0.00 79 1015.4
20260510063007 72 133 0.0 4.0 0.00 0.00 0.00 79 1015.6
20260510061539 72 97 0.0 3.0 0.00 0.00 0.00 79 1015.8
20260510060002 72 97 2.0 4.0 0.00 0.00 0.00 79 1016.2
20260510054532 72 87 0.0 2.0 0.00 0.00 0.00 79 1016.3
20260510053059 72 87 0.0 0.0 0.00 0.00 0.00 78 1016.7
20260510053005 72 87 0.0 0.0 0.00 0.00 0.00 78 1016.8
20260510051534 72 87 0.0 0.0 0.00 0.00 0.00 78 1016.9
20260510050001 73 87 0.0 1.0 0.00 0.00 0.00 78 1017.0
20260510044533 73 87 0.0 0.0 0.00 0.00 0.00 78 1017.1
20260510043055 73 87 0.0 0.0 0.00 0.00 0.00 78 1017.3
20260510041531 74 87 0.0 0.0 0.00 0.00 0.00 78 1017.3
20260510040011 74 87 0.0 0.0 0.00 0.00 0.00 77 1017.3
20260510034531 74 87 0.0 0.0 0.00 0.00 0.00 77 1017.4
20260510033129 74 87 0.0 0.0 0.00 0.00 0.00 78 1017.4
20260510031525 74 87 0.0 1.0 0.00 0.00 0.00 77 1017.2
20260510030054 74 87 1.0 2.0 0.00 0.00 0.00 77 1017.1
20260510024527 74 87 0.0 1.0 0.00 0.00 0.00 77 1017.2
20260510023059 74 87 0.0 2.0 0.00 0.00 0.00 77 1016.9
20260510021526 74 87 0.0 2.0 0.00 0.00 0.00 77 1016.9
20260510020055 74 87 0.0 3.0 0.00 0.00 0.00 77 1016.6
20260510014521 74 87 0.0 4.0 0.00 0.00 0.00 77 1016.5
20260510013052 74 81 1.0 3.0 0.00 0.00 0.00 77 1016.5
20260510011517 74 81 0.0 3.0 0.00 0.00 0.00 77 1016.4
20260510010049 74 80 1.0 3.0 0.00 0.00 0.00 76 1016.0
20260510004522 75 43 2.0 5.0 0.00 0.00 0.00 76 1015.7
20260510003103 75 43 3.0 8.0 0.00 0.00 0.00 76 1015.6
20260510001525 75 32 2.0 6.0 0.00 0.00 0.00 75 1015.7
20260510000053 76 30 1.0 4.0 0.00 0.00 0.00 74 1015.6
20260509234536 76 31 2.0 12.0 0.00 0.00 0.00 74 1015.5
20260509233045 76 42 6.0 12.0 0.00 0.00 0.00 74 1015.6
20260509231517 77 16 3.0 10.0 0.00 0.00 0.00 74 1015.6
20260509230051 77 329 4.0 8.0 0.00 0.00 0.00 74 1015.5
20260509224529 77 354 4.0 12.0 0.00 0.00 0.00 74 1015.5
20260509223051 79 359 5.0 18.0 0.00 0.00 0.00 74 1015.6
20260509221522 82 18 2.0 9.0 0.00 0.00 0.00 71 1015.0
20260509220047 83 25 2.0 6.0 0.00 0.00 0.00 66 1014.9
20260509214516 83 301 2.0 6.0 0.00 0.00 0.00 66 1014.5
20260509213044 83 4 1.0 6.0 0.00 0.00 0.00 66 1014.5
20260509211510 84 343 2.0 9.0 0.00 0.00 0.00 65 1014.3
20260509210048 85 14 3.0 8.0 0.00 0.00 0.00 64 1014.2
20260509204508 85 359 2.0 9.0 0.00 0.00 0.00 65 1014.3
20260509203052 84 326 3.0 10.0 0.00 0.00 0.00 66 1014.2
20260509201514 85 354 3.0 9.0 0.00 0.00 0.00 65 1014.2
20260509200042 85 348 3.0 9.0 0.00 0.00 0.00 62 1014.2
20260509194510 85 314 5.0 10.0 0.00 0.00 0.00 61 1014.3
20260509193040 85 279 6.0 14.0 0.00 0.00 0.00 62 1014.2
20260509191600 84 262 6.0 12.0 0.00 0.00 0.00 65 1014.5
20260509191507 84 268 6.0 12.0 0.00 0.00 0.00 66 1014.5
20260509190030 83 41 0.0 3.0 0.00 0.00 0.00 70 1014.7
20260509184511 82 41 0.0 2.0 0.00 0.00 0.00 72 1014.7
20260509183032 82 41 0.0 4.0 0.00 0.00 0.00 72 1014.8
20260509181611 82 31 1.0 5.0 0.00 0.00 0.00 72 1015.1
20260509181502 83 31 1.0 5.0 0.00 0.00 0.00 72 1015.1
20260509180100 83 135 3.0 8.0 0.00 0.00 0.00 71 1015.0
20260509174507 84 242 4.0 16.0 0.00 0.00 0.00 68 1015.2
20260509173040 88 239 5.0 10.0 0.00 0.00 0.00 58 1015.0
20260509171557 88 285 7.0 11.0 0.00 0.00 0.00 58 1015.1
20260509170039 87 278 4.0 11.0 0.00 0.00 0.00 60 1015.4
20260509164544 86 274 4.0 9.0 0.00 0.00 0.00 62 1015.6
20260509163023 86 188 2.0 5.0 0.00 0.00 0.00 64 1015.6
20260509161542 85 218 0.0 9.0 0.00 0.00 0.00 65 1015.7